GW5124 Weather Reports


time (UTC)temp
F
wind
direction
speed
knots
gust
knots
rain 1hr
in
rain 24hr
in
rain mn
in
humidity
%
barometer
mb
20260508092940 31 352 0.0 0.0 0.00 0.00 0.00 96 1015.2
20260508092437 31 352 0.0 0.0 0.00 0.00 0.00 96 1015.2
20260508091936 31 351 0.0 0.0 0.00 0.00 0.00 96 1015.4
20260508091432 31 17 0.0 0.0 0.00 0.00 0.00 96 1015.0
20260508090929 31 69 0.0 0.0 0.00 0.00 0.00 95 1015.3
20260508090428 31 69 0.0 0.0 0.00 0.00 0.00 95 1015.2
20260508085923 31 69 0.0 0.0 0.00 0.00 0.00 95 1015.1
20260508085420 31 69 0.0 0.0 0.00 0.00 0.00 95 1015.2
20260508084917 31 69 0.0 0.0 0.00 0.00 0.00 95 1015.1
20260508084413 31 69 0.0 0.0 0.00 0.00 0.00 95 1015.2
20260508083912 31 69 0.0 0.0 0.00 0.00 0.00 95 1015.2
20260508083409 31 69 0.0 0.0 0.00 0.00 0.00 95 1015.2
20260508082908 31 69 0.0 0.0 0.00 0.00 0.00 95 1015.2
20260508082406 32 69 0.0 0.0 0.00 0.00 0.00 94 1015.2
20260508081904 32 69 0.0 0.0 0.00 0.00 0.00 94 1015.2
20260508081400 32 69 0.0 0.0 0.00 0.00 0.00 94 1015.0
20260508080857 32 69 0.0 0.0 0.00 0.00 0.00 94 1014.9
20260508080355 32 69 0.0 0.0 0.00 0.00 0.00 94 1014.9
20260508075851 32 69 0.0 0.0 0.00 0.00 0.00 93 1015.0
20260508075348 32 69 0.0 0.0 0.00 0.00 0.00 93 1014.9
20260508074846 32 69 0.0 0.0 0.00 0.00 0.00 93 1014.7
20260508074343 33 69 0.0 0.0 0.00 0.00 0.00 92 1014.8
20260508073840 33 69 0.0 0.0 0.00 0.00 0.00 92 1014.5
20260508073338 33 69 0.0 0.0 0.00 0.00 0.00 92 1014.7
20260508072834 33 69 0.0 0.0 0.00 0.00 0.00 91 1014.7
20260508072331 33 69 0.0 0.0 0.00 0.00 0.00 91 1014.9
20260508071828 33 69 0.0 0.0 0.00 0.00 0.00 91 1014.9
20260508071326 33 69 0.0 0.0 0.00 0.00 0.00 91 1014.7
20260508070824 33 69 0.0 0.0 0.00 0.00 0.00 91 1014.7
20260508070322 33 69 0.0 0.0 0.00 0.00 0.00 91 1015.0
20260508065819 33 69 0.0 0.0 0.00 0.00 0.00 91 1015.0
20260508065317 33 69 0.0 0.0 0.00 0.00 0.00 91 1014.9
20260508064814 33 69 0.0 0.0 0.00 0.00 0.00 91 1014.8
20260508064312 33 69 0.0 0.0 0.00 0.00 0.00 91 1014.9
20260508063809 33 69 0.0 0.0 0.00 0.00 0.00 91 1015.1
20260508063307 33 69 0.0 0.0 0.00 0.00 0.00 91 1014.9
20260508062804 34 71 0.0 0.0 0.00 0.00 0.00 91 1015.1
20260508062305 34 69 0.0 0.0 0.00 0.00 0.00 90 1015.0
20260508061758 34 69 0.0 0.0 0.00 0.00 0.00 90 1014.9
20260508061255 34 68 0.0 0.0 0.00 0.00 0.00 89 1015.1
20260508060752 34 65 0.0 0.0 0.00 0.00 0.00 88 1015.1
20260508060250 34 65 0.0 0.0 0.00 0.00 0.00 88 1014.9
20260508055745 35 65 0.0 0.0 0.00 0.00 0.00 88 1014.9
20260508055242 35 65 0.0 0.0 0.00 0.00 0.00 88 1014.9
20260508054739 35 65 0.0 0.0 0.00 0.00 0.00 87 1015.0
20260508054237 35 65 0.0 0.0 0.00 0.00 0.00 86 1014.8
20260508053734 36 72 0.0 0.0 0.00 0.00 0.00 85 1015.0
20260508053231 36 72 0.0 0.0 0.00 0.00 0.00 85 1015.0
20260508052728 36 72 0.0 0.0 0.00 0.00 0.00 85 1014.9
20260508052225 36 73 0.0 0.0 0.00 0.00 0.00 86 1015.0
20260508051721 36 73 0.0 0.0 0.00 0.00 0.00 86 1015.1
20260508051216 36 73 0.0 0.0 0.00 0.00 0.00 85 1015.1
20260508050713 37 73 0.0 0.0 0.00 0.00 0.00 83 1015.1
20260508050211 37 76 0.0 0.0 0.00 0.00 0.00 84 1015.0
20260508045706 37 80 0.0 0.0 0.00 0.00 0.00 83 1015.0
20260508045204 37 80 0.0 0.0 0.00 0.00 0.00 83 1015.0
20260508044701 38 80 0.0 0.0 0.00 0.00 0.00 82 1015.2
20260508044158 38 80 0.0 0.0 0.00 0.00 0.00 82 1015.1
20260508043654 38 80 0.0 0.0 0.00 0.00 0.00 80 1015.1
20260508043152 38 118 0.0 0.0 0.00 0.00 0.00 80 1014.9
20260508042648 39 136 0.0 0.0 0.00 0.00 0.00 80 1015.1
20260508042146 39 138 0.0 0.0 0.00 0.00 0.00 79 1014.9
20260508041642 39 138 0.0 0.0 0.00 0.00 0.00 78 1015.0
20260508041139 40 138 0.0 0.0 0.00 0.00 0.00 77 1015.0
20260508040635 40 224 0.0 0.0 0.00 0.00 0.00 76 1014.9
20260508040133 41 224 0.0 0.0 0.00 0.00 0.00 75 1014.8
20260508035630 41 145 0.9 0.9 0.00 0.06 0.06 75 1014.7
20260508035127 41 239 0.0 0.0 0.00 0.06 0.06 75 1014.7
20260508034624 41 286 1.7 1.7 0.00 0.06 0.06 73 1014.5
20260508034121 41 124 0.0 0.0 0.00 0.06 0.06 77 1014.6
20260508033618 41 106 0.0 0.0 0.00 0.06 0.06 74 1014.3
20260508033116 41 107 0.0 0.0 0.00 0.06 0.06 77 1014.5
20260508032612 41 220 0.0 0.0 0.00 0.06 0.06 77 1014.6
20260508032110 41 156 0.0 0.0 0.00 0.06 0.06 79 1014.2
20260508031607 40 73 0.0 0.0 0.00 0.06 0.06 78 1014.6
20260508031103 40 308 0.0 0.0 0.00 0.06 0.06 79 1014.2
20260508030559 40 278 0.0 0.0 0.00 0.06 0.06 80 1014.5
20260508030058 41 250 0.0 0.0 0.00 0.06 0.06 79 1014.1
20260508025553 40 110 0.0 0.0 0.00 0.06 0.06 80 1014.2
20260508025051 40 112 0.0 0.0 0.00 0.06 0.06 80 1014.3
20260508024546 40 94 0.0 0.0 0.00 0.06 0.06 79 1014.3
20260508024044 41 94 0.0 0.0 0.00 0.06 0.06 78 1014.1
20260508023540 41 95 0.0 0.0 0.00 0.06 0.06 77 1013.9
20260508023038 42 95 0.0 0.0 0.00 0.06 0.06 75 1013.9
20260508022533 42 116 0.0 0.0 0.00 0.06 0.06 76 1014.0
20260508022031 43 113 0.0 0.0 0.00 0.06 0.06 74 1014.0
20260508021526 43 85 0.0 0.0 0.00 0.06 0.06 73 1013.6
20260508021022 43 110 0.0 0.0 0.00 0.06 0.06 74 1013.9
20260508020520 43 137 0.0 0.0 0.00 0.06 0.06 71 1013.7
20260508020018 43 89 0.0 0.0 0.00 0.06 0.06 74 1013.8
20260508015515 43 103 0.0 0.0 0.00 0.06 0.06 74 1013.7
20260508015012 43 100 0.0 0.0 0.00 0.06 0.06 74 1013.8
20260508014508 44 127 0.0 0.9 0.00 0.06 0.06 72 1013.8
20260508014005 44 151 0.0 0.0 0.00 0.06 0.06 69 1013.8
20260508013501 44 123 0.0 0.0 0.00 0.06 0.06 70 1013.5
20260508012958 45 190 0.0 0.9 0.00 0.06 0.06 70 1013.6
20260508012455 44 77 0.0 0.0 0.00 0.06 0.06 72 1013.4
20260508011952 44 71 0.0 0.0 0.00 0.06 0.06 72 1013.4
20260508011450 44 64 0.0 0.0 0.00 0.06 0.06 69 1013.3
20260508010947 44 321 0.0 0.0 0.00 0.06 0.06 70 1013.2
20260508010444 45 321 0.0 0.0 0.00 0.06 0.06 69 1013.2
20260508005942 46 322 0.0 0.9 0.00 0.06 0.06 66 1013.2
20260508005438 45 159 0.0 0.0 0.00 0.06 0.06 70 1013.5
20260508004935 45 147 0.0 0.9 0.00 0.06 0.06 71 1013.0
20260508004431 45 93 0.0 0.9 0.00 0.06 0.06 69 1013.2
20260508003928 46 130 0.0 0.0 0.00 0.06 0.06 70 1013.2
20260508003425 47 116 0.0 0.0 0.00 0.06 0.06 68 1012.9
20260508002922 47 165 0.0 0.9 0.00 0.06 0.06 64 1013.0
20260508002418 48 195 0.0 0.9 0.00 0.06 0.06 68 1012.7
20260508001914 48 163 0.9 1.7 0.00 0.06 0.06 63 1013.0
20260508001411 49 196 0.0 0.0 0.00 0.06 0.06 63 1012.9
20260508000907 49 173 0.9 0.9 0.00 0.06 0.06 65 1012.6
20260508000405 50 259 0.0 0.9 0.00 0.06 0.06 60 1012.6
20260507235900 50 253 1.7 1.7 0.00 0.06 0.06 58 1012.7
20260507235358 50 168 0.9 1.7 0.00 0.06 0.06 59 1012.6
20260507234854 51 176 0.0 0.0 0.00 0.06 0.06 58 1012.3
20260507234351 51 221 4.3 6.1 0.00 0.06 0.06 55 1012.6
20260507233848 51 196 0.0 0.9 0.00 0.06 0.06 56 1012.4
20260507233345 52 187 1.7 2.6 0.00 0.06 0.06 55 1012.5
20260507232843 52 275 1.7 2.6 0.00 0.06 0.06 56 1012.5
20260507232339 52 198 1.7 5.2 0.00 0.06 0.06 58 1012.5
20260507231837 52 187 1.7 3.5 0.00 0.06 0.06 56 1012.2
20260507231333 52 254 1.7 2.6 0.00 0.06 0.06 56 1012.1
20260507230829 52 176 2.6 3.5 0.00 0.06 0.06 55 1012.2
20260507230327 53 323 0.0 0.9 0.00 0.06 0.06 56 1012.2
20260507225827 52 152 3.5 5.2 0.00 0.06 0.06 57 1012.2
20260507225323 52 240 0.9 2.6 0.00 0.06 0.06 56 1012.3
20260507224819 53 185 2.6 5.2 0.00 0.06 0.06 53 1012.2
20260507224316 53 221 1.7 6.1 0.00 0.06 0.06 53 1012.2
20260507223812 53 190 3.5 6.1 0.00 0.06 0.06 54 1012.1
20260507223308 53 152 5.2 11.3 0.00 0.06 0.06 53 1012.2
20260507222806 54 185 2.6 3.5 0.00 0.06 0.06 52 1012.0
20260507222305 54 223 0.9 7.0 0.00 0.06 0.06 52 1012.1
20260507221759 54 204 4.3 7.0 0.00 0.06 0.06 51 1012.1
20260507221255 53 184 1.7 3.5 0.00 0.06 0.06 52 1011.9
20260507220752 53 216 3.5 7.0 0.00 0.06 0.06 54 1012.0
20260507220250 54 92 5.2 7.8 0.00 0.06 0.06 52 1011.9
20260507215746 54 262 1.7 2.6 0.00 0.06 0.06 57 1011.6
20260507215244 53 249 1.7 6.1 0.00 0.06 0.06 54 1011.6
20260507214741 54 188 1.7 7.0 0.00 0.06 0.06 54 1011.5
20260507214238 53 262 0.0 0.9 0.00 0.06 0.06 56 1011.4
20260507213733 54 139 1.7 2.6 0.00 0.06 0.06 55 1011.4
20260507213230 54 234 1.7 5.2 0.00 0.06 0.06 55 1011.4
20260507212726 56 168 5.2 7.0 0.00 0.06 0.06 51 1011.2
20260507212223 55 189 3.5 5.2 0.00 0.06 0.06 51 1011.3
20260507211720 55 230 1.7 2.6 0.00 0.06 0.06 56 1011.4
20260507211216 54 287 0.9 3.5 0.00 0.06 0.06 55 1011.3
20260507210713 53 126 2.6 5.2 0.00 0.06 0.06 59 1011.1
20260507210210 52 173 3.5 5.2 0.00 0.06 0.06 58 1011.3
20260507205706 53 141 3.5 6.1 0.00 0.06 0.06 59 1011.2
20260507205203 53 160 0.0 2.6 0.00 0.06 0.06 58 1011.2
20260507204659 55 190 1.7 7.8 0.00 0.06 0.06 55 1011.3
20260507204157 55 274 0.0 6.1 0.00 0.06 0.06 57 1011.1
20260507203655 53 173 2.6 3.5 0.00 0.06 0.06 58 1011.3
20260507203152 53 111 3.5 6.1 0.00 0.06 0.06 60 1011.2
20260507202647 53 173 0.0 2.6 0.00 0.06 0.06 61 1011.2
20260507202144 54 281 1.7 1.7 0.00 0.06 0.06 58 1011.3
20260507201639 54 174 2.6 3.5 0.00 0.06 0.06 58 1011.5
20260507201136 53 160 4.3 7.0 0.00 0.06 0.06 60 1011.3
20260507200632 54 219 0.9 1.7 0.00 0.06 0.06 62 1011.2
20260507200128 53 168 0.9 3.5 0.00 0.06 0.06 61 1011.2
20260507195625 53 205 2.6 5.2 0.00 0.06 0.06 61 1011.5
20260507195123 54 255 0.0 5.2 0.00 0.06 0.06 59 1011.4
20260507194619 55 143 1.7 3.5 0.00 0.06 0.06 58 1011.7
20260507194115 56 150 1.7 3.5 0.00 0.06 0.06 58 1011.5
20260507193612 54 193 2.6 5.2 0.00 0.06 0.06 60 1011.4
20260507193109 54 221 1.7 2.6 0.00 0.06 0.06 61 1011.5
20260507192605 55 140 1.7 8.7 0.00 0.06 0.06 57 1011.6
20260507192102 56 280 1.7 3.5 0.00 0.06 0.06 55 1011.5
20260507191557 57 288 7.0 8.7 0.00 0.06 0.06 52 1011.7
20260507191055 56 284 2.6 5.2 0.00 0.06 0.06 57 1011.6
20260507190552 56 262 1.7 2.6 0.00 0.06 0.06 55 1011.6
20260507190051 56 153 2.6 5.2 0.00 0.06 0.06 56 1011.7
20260507185549 54 187 2.6 2.6 0.00 0.06 0.06 60 1012.0
20260507185045 55 123 3.5 7.0 0.00 0.06 0.06 58 1011.7
20260507184543 53 169 0.9 1.7 0.00 0.06 0.06 60 1011.7
20260507184041 53 199 3.5 5.2 0.00 0.06 0.06 61 1012.1
20260507183536 53 241 1.7 3.5 0.00 0.06 0.06 62 1012.0
20260507183034 54 193 2.6 7.0 0.00 0.06 0.06 60 1012.2
20260507182530 53 166 2.6 2.6 0.00 0.06 0.06 61 1011.9
20260507182026 52 189 1.7 3.5 0.00 0.06 0.06 62 1012.2
20260507181523 53 183 3.5 7.0 0.00 0.06 0.06 60 1011.9
20260507181019 54 151 3.5 7.0 0.00 0.06 0.06 58 1012.0
20260507180516 55 213 1.7 3.5 0.00 0.06 0.06 56 1012.0
20260507180013 54 176 3.5 6.1 0.00 0.06 0.06 59 1012.0
20260507175509 52 192 3.5 5.2 0.00 0.06 0.06 62 1012.1
20260507175007 51 200 2.6 7.8 0.00 0.06 0.06 64 1011.9
20260507174504 52 291 1.7 2.6 0.00 0.06 0.06 65 1012.1
20260507174001 51 144 1.7 5.2 0.00 0.06 0.06 63 1012.1
20260507173458 51 174 1.7 2.6 0.00 0.06 0.06 64 1012.3
20260507172955 51 318 2.6 5.2 0.00 0.06 0.06 63 1012.2
20260507172451 51 190 0.0 3.5 0.00 0.06 0.06 64 1012.2
20260507171948 52 159 5.2 8.7 0.00 0.06 0.06 62 1012.5
20260507171443 51 180 1.7 3.5 0.00 0.06 0.06 62 1012.2
20260507170941 51 155 5.2 7.0 0.00 0.06 0.06 62 1012.5
20260507170437 51 123 0.9 5.2 0.00 0.06 0.06 61 1012.5
20260507165934 53 252 0.9 2.6 0.00 0.06 0.06 65 1012.4
20260507165430 52 274 0.9 5.2 0.00 0.06 0.06 63 1012.5
20260507164926 54 186 2.6 6.1 0.00 0.06 0.06 62 1012.5
20260507164423 54 179 3.5 6.1 0.00 0.06 0.06 61 1012.3
20260507163920 55 187 1.7 6.1 0.00 0.06 0.06 60 1012.5
20260507163418 53 201 1.7 3.5 0.00 0.06 0.06 62 1012.4
20260507162914 53 293 4.3 6.1 0.00 0.06 0.06 62 1012.4
20260507162409 51 170 0.9 2.6 0.00 0.06 0.06 66 1012.5
20260507161907 52 241 0.0 2.6 0.00 0.06 0.06 67 1012.6
20260507161403 51 78 0.0 1.7 0.00 0.06 0.06 66 1012.6
20260507160900 51 260 1.7 5.2 0.00 0.06 0.06 69 1012.8
20260507160355 51 48 0.9 1.7 0.00 0.06 0.06 72 1012.8
20260507155852 51 264 4.3 6.1 0.00 0.06 0.06 68 1012.8
20260507155348 50 138 1.7 3.5 0.00 0.06 0.06 68 1012.5
20260507154845 51 180 1.7 2.6 0.00 0.06 0.06 71 1012.7
20260507154342 50 24 0.9 2.6 0.00 0.06 0.06 73 1012.8
20260507153839 49 171 3.5 3.5 0.00 0.06 0.06 69 1012.8
20260507153335 49 78 0.9 1.7 0.00 0.06 0.06 70 1012.8
20260507152832 49 138 0.9 2.6 0.00 0.06 0.06 69 1012.7
20260507152328 49 222 0.0 2.6 0.00 0.06 0.06 76 1012.8
20260507151825 49 310 0.0 1.7 0.00 0.06 0.06 75 1013.0
20260507151321 49 145 1.7 2.6 0.00 0.06 0.06 73 1012.8
20260507150818 50 162 2.6 3.5 0.00 0.06 0.06 74 1012.8
20260507150314 49 203 0.9 0.9 0.00 0.06 0.06 75 1012.9
20260507145811 48 318 1.7 3.5 0.00 0.06 0.06 81 1013.0
20260507145307 47 38 0.9 1.7 0.00 0.06 0.06 78 1013.0
20260507144804 47 326 0.0 1.7 0.00 0.06 0.06 80 1013.0
20260507144302 47 308 0.9 2.6 0.00 0.06 0.06 79 1012.7
20260507143758 49 289 0.9 3.5 0.00 0.06 0.06 75 1013.2
20260507143255 48 313 0.0 0.9 0.00 0.06 0.06 77 1013.2
20260507142751 47 19 0.9 0.9 0.00 0.06 0.06 82 1013.0
20260507142248 47 127 0.9 2.6 0.00 0.06 0.06 76 1013.3
20260507141744 47 328 0.9 1.7 0.00 0.06 0.06 82 1013.3
20260507141242 47 8 0.0 1.7 0.00 0.06 0.06 84 1013.3
20260507140737 47 353 0.0 1.7 0.00 0.06 0.06 84 1013.4
20260507140235 47 27 0.9 1.7 0.00 0.06 0.06 85 1013.5
20260507135732 47 5 0.0 0.9 0.00 0.06 0.06 87 1013.7
20260507135230 46 339 0.9 2.6 0.00 0.06 0.06 89 1013.8
20260507134725 45 75 1.7 1.7 0.00 0.06 0.06 88 1013.7
20260507134222 45 294 0.9 2.6 0.00 0.06 0.06 90 1013.5
20260507133718 45 178 0.9 1.7 0.00 0.06 0.06 92 1013.7
20260507133215 45 257 0.0 0.9 0.00 0.06 0.06 93 1013.7
20260507132713 45 320 0.0 0.9 0.00 0.06 0.06 94 1013.6
20260507132209 45 359 0.9 1.7 0.00 0.06 0.06 95 1013.5
20260507131706 45 290 0.0 0.9 0.00 0.06 0.06 97 1013.7
20260507131203 44 303 0.0 2.6 0.00 0.06 0.06 97 1013.5
20260507130700 44 16 0.0 0.0 0.00 0.06 0.06 98 1013.6
20260507130157 44 324 0.0 0.0 0.00 0.06 0.06 98 1013.6
20260507125656 44 130 0.0 0.0 0.00 0.06 0.06 98 1013.8
20260507125153 44 290 0.0 2.6 0.00 0.06 0.06 99 1013.6
20260507124649 44 359 0.0 1.7 0.00 0.06 0.06 99 1013.7
20260507124147 43 5 0.9 1.7 0.00 0.06 0.06 99 1013.8
20260507123645 43 333 0.0 0.0 0.00 0.06 0.06 99 1013.7
20260507123142 43 14 0.0 0.9 0.00 0.06 0.06 99 1013.6
20260507122637 43 292 0.0 1.7 0.00 0.06 0.06 99 1013.4
20260507122133 43 48 0.0 0.9 0.00 0.06 0.06 99 1013.5
20260507121629 43 300 0.0 2.6 0.00 0.06 0.06 99 1013.5
20260507121125 43 64 0.0 0.0 0.00 0.06 0.06 99 1013.6
20260507120622 43 295 0.0 0.0 0.00 0.06 0.06 99 1013.6
20260507120118 43 271 0.0 0.0 0.00 0.06 0.06 99 1013.5
20260507115615 43 265 0.0 0.9 0.00 0.06 0.06 99 1013.5
20260507115111 43 88 0.0 0.9 0.00 0.06 0.06 99 1013.6
20260507114607 43 134 0.0 0.0 0.00 0.06 0.06 99 1013.4
20260507114104 43 140 0.0 0.0 0.00 0.06 0.06 99 1013.5
20260507113601 43 141 0.0 0.0 0.00 0.06 0.06 99 1013.5
20260507113058 43 141 0.0 0.0 0.00 0.06 0.06 99 1013.3
20260507112556 43 141 0.0 0.0 0.00 0.06 0.06 99 1013.0
20260507112053 43 316 0.0 0.0 0.00 0.06 0.06 99 1013.3
20260507111549 43 315 0.0 0.0 0.00 0.06 0.06 99 1013.2
20260507111046 43 319 0.0 0.0 0.00 0.06 0.06 99 1013.2
20260507110543 43 350 0.0 0.0 0.00 0.06 0.06 99 1012.9
20260507110039 43 352 0.0 0.0 0.00 0.06 0.06 99 1012.9
20260507105536 43 352 0.0 0.0 0.00 0.06 0.06 99 1012.8
20260507105032 43 352 0.0 0.0 0.00 0.06 0.06 99 1012.7
20260507104530 43 352 0.0 0.0 0.00 0.06 0.06 99 1012.7
20260507104026 43 338 0.0 0.9 0.00 0.06 0.06 99 1012.5
20260507103522 43 324 0.0 0.9 0.00 0.06 0.06 99 1012.8
20260507103019 43 300 0.9 1.7 0.00 0.06 0.06 99 1012.6
20260507102516 43 356 0.0 0.0 0.00 0.06 0.06 99 1012.7
20260507102012 43 89 0.0 0.0 0.00 0.06 0.06 99 1012.7
20260507101507 43 356 0.0 0.0 0.00 0.06 0.06 99 1012.4
20260507101004 43 39 0.0 0.0 0.00 0.06 0.06 99 1012.5
20260507100501 43 56 0.0 0.0 0.00 0.06 0.06 99 1012.7
20260507095959 43 331 0.0 0.0 0.00 0.06 0.06 99 1012.5
20260507095457 43 39 0.0 0.0 0.00 0.06 0.06 99 1012.8
20260507094953 43 301 0.0 0.0 0.00 0.06 0.06 99 1012.7
20260507094449 43 311 0.0 0.9 0.00 0.06 0.06 99 1012.9
20260507093947 43 358 0.0 0.9 0.00 0.06 0.06 99 1013.0
20260507093444 43 333 0.0 0.9 0.00 0.06 0.06 99 1012.6